KC5TXI Weather Reports


Display with metric or nautical units.
time (UTC)temp
F
wind
direction
speed
MPH
gust
MPH
rain 1hr
in
rain 24hr
in
rain mn
in
humidity
%
barometer
mb
20181218232011 60 121 0.0 7.0 0.00 0.00 0.00 46 1014.9
20181218231511 60 123 3.0 7.0 0.00 0.00 0.00 46 1014.9
20181218231012 61 156 4.0 7.0 0.00 0.00 0.00 45 1014.9
20181218230511 61 136 5.0 7.0 0.00 0.00 0.00 45 1014.9
20181218230011 61 128 3.0 7.0 0.00 0.00 0.00 45 1014.9
20181218225511 62 180 0.0 8.0 0.00 0.00 0.00 45 1014.9
20181218225011 62 123 5.0 8.0 0.00 0.00 0.00 44 1014.9
20181218224511 62 143 3.0 7.0 0.00 0.00 0.00 43 1014.9
20181218224025 62 154 6.0 6.0 0.00 0.00 0.00 42 1014.9
20181218223526 63 151 4.0 9.0 0.00 0.00 0.00 42 1014.9
20181218223011 63 168 4.0 9.0 0.00 0.00 0.00 41 1014.9
20181218222510 63 130 4.0 7.0 0.00 0.00 0.00 40 1014.9
20181218222010 63 164 7.0 8.0 0.00 0.00 0.00 39 1014.9
20181218221510 63 184 5.0 8.0 0.00 0.00 0.00 39 1014.9
20181218221010 63 188 5.0 8.0 0.00 0.00 0.00 40 1014.9
20181218220510 63 113 5.0 7.0 0.00 0.00 0.00 40 1014.9
20181218220011 64 161 4.0 7.0 0.00 0.00 0.00 39 1014.9
20181218215510 64 187 4.0 7.0 0.00 0.00 0.00 41 1014.9
20181218215010 64 132 5.0 7.0 0.00 0.00 0.00 41 1014.9
20181218214510 65 137 3.0 10.0 0.00 0.00 0.00 41 1014.9
20181218214010 65 178 5.0 10.0 0.00 0.00 0.00 42 1014.9
20181218213510 65 100 5.0 7.0 0.00 0.00 0.00 43 1014.9
20181218213040 66 182 4.0 7.0 0.00 0.00 0.00 42 1014.9
20181218212510 66 142 4.0 7.0 0.00 0.00 0.00 42 1014.9
20181218212010 67 153 6.0 7.0 0.00 0.00 0.00 41 1014.9
20181218211509 67 170 3.0 7.0 0.00 0.00 0.00 41 1014.9
20181218211010 67 211 3.0 7.0 0.00 0.00 0.00 42 1014.9
20181218210509 67 207 5.0 7.0 0.00 0.00 0.00 43 1014.9
20181218210010 66 139 3.0 7.0 0.00 0.00 0.00 43 1014.9
20181218205510 66 201 5.0 7.0 0.00 0.00 0.00 42 1014.9
20181218205010 65 187 5.0 7.0 0.00 0.00 0.00 42 1014.9
20181218204509 65 199 5.0 7.0 0.00 0.00 0.00 43 1014.9
20181218204025 65 140 5.0 7.0 0.00 0.00 0.00 44 1015.9
20181218203539 65 189 4.0 8.0 0.00 0.00 0.00 44 1015.9
20181218203009 65 200 0.0 8.0 0.00 0.00 0.00 43 1015.9
20181218202509 65 140 5.0 7.0 0.00 0.00 0.00 44 1015.9
20181218202009 65 140 4.0 7.0 0.00 0.00 0.00 44 1015.9
20181218201509 66 176 5.0 7.0 0.00 0.00 0.00 44 1015.9
20181218201009 65 180 3.0 7.0 0.00 0.00 0.00 44 1015.9
20181218200509 65 121 3.0 8.0 0.00 0.00 0.00 46 1015.9
20181218200009 65 158 4.0 8.0 0.00 0.00 0.00 46 1015.9
20181218195509 64 173 3.0 8.0 0.00 0.00 0.00 46 1015.9
20181218195010 63 187 4.0 7.0 0.00 0.00 0.00 46 1015.9
20181218194538 62 109 4.0 7.0 0.00 0.00 0.00 47 1015.9
20181218194008 62 202 7.0 8.0 0.00 0.00 0.00 47 1015.9
20181218193508 62 71 4.0 9.0 0.00 0.00 0.00 46 1015.9
20181218193008 62 156 6.0 9.0 0.00 0.00 0.00 46 1015.9
20181218192524 62 179 5.0 9.0 0.00 0.00 0.00 45 1016.9
20181218192008 62 128 7.0 7.0 0.00 0.00 0.00 46 1016.9
20181218191508 62 190 6.0 9.0 0.00 0.00 0.00 45 1016.9
20181218191009 62 119 7.0 9.0 0.00 0.00 0.00 47 1016.9
20181218190508 62 125 7.0 8.0 0.00 0.00 0.00 47 1016.9
20181218190008 61 205 7.0 7.0 0.00 0.00 0.00 47 1016.9
20181218185524 61 133 5.0 5.0 0.00 0.00 0.00 48 1017.9
20181218185008 60 166 4.0 7.0 0.00 0.00 0.00 48 1017.9
20181218184507 60 178 5.0 7.0 0.00 0.00 0.00 49 1017.9
20181218184023 60 157 4.0 7.0 0.00 0.00 0.00 49 1017.9
20181218183508 60 200 4.0 6.0 0.00 0.00 0.00 49 1017.9
20181218183008 59 149 6.0 6.0 0.00 0.00 0.00 51 1017.9
20181218182507 59 166 5.0 6.0 0.00 0.00 0.00 49 1018.9
20181218182022 58 151 3.0 6.0 0.00 0.00 0.00 51 1018.9
20181218181507 58 168 5.0 6.0 0.00 0.00 0.00 52 1018.9
20181218181008 57 125 3.0 6.0 0.00 0.00 0.00 53 1018.9
20181218180508 57 161 4.0 6.0 0.00 0.00 0.00 52 1018.9
20181218180007 56 170 4.0 6.0 0.00 0.00 0.00 54 1018.9
20181218175523 56 189 5.0 7.0 0.00 0.00 0.00 54 1018.9
20181218175007 55 188 6.0 7.0 0.00 0.00 0.00 54 1018.9
20181218174507 55 156 4.0 7.0 0.00 0.00 0.00 54 1018.9
20181218174008 55 179 3.0 7.0 0.00 0.00 0.00 57 1019.9
20181218173508 54 121 0.0 5.0 0.00 0.00 0.00 58 1019.9
20181218173007 54 118 5.0 5.0 0.00 0.00 0.00 58 1019.9
20181218172509 54 180 4.0 5.0 0.00 0.00 0.00 57 1019.9
20181218172009 54 174 3.0 6.0 0.00 0.00 0.00 59 1019.9
20181218171508 54 210 3.0 6.0 0.00 0.00 0.00 59 1019.9
20181218171007 53 173 4.0 7.0 0.00 0.00 0.00 59 1019.9
20181218170506 53 180 5.0 7.0 0.00 0.00 0.00 59 1019.9
20181218170007 53 203 0.0 7.0 0.00 0.00 0.00 60 1019.9
20181218165506 53 210 4.0 7.0 0.00 0.00 0.00 59 1019.9
20181218165007 52 199 5.0 8.0 0.00 0.00 0.00 63 1019.9
20181218164506 52 146 6.0 8.0 0.00 0.00 0.00 64 1019.9
20181218164006 51 179 3.0 7.0 0.00 0.00 0.00 65 1020.9
20181218163506 51 162 5.0 7.0 0.00 0.00 0.00 68 1020.9
20181218163023 50 190 5.0 7.0 0.00 0.00 0.00 71 1020.9
20181218162507 50 180 5.0 7.0 0.00 0.00 0.00 75 1020.9
20181218162007 50 170 3.0 6.0 0.00 0.00 0.00 81 1020.9
20181218161506 49 188 4.0 8.0 0.00 0.00 0.00 85 1020.9
20181218161006 48 161 3.0 8.0 0.00 0.00 0.00 88 1020.9
20181218160506 48 195 0.0 5.0 0.00 0.00 0.00 89 1020.9
20181218160006 47 196 5.0 5.0 0.00 0.00 0.00 91 1020.9
20181218155505 46 193 0.0 5.0 0.00 0.00 0.00 92 1020.9
20181218155006 45 203 0.0 6.0 0.00 0.00 0.00 92 1020.9
20181218154506 45 194 0.0 6.0 0.00 0.00 0.00 92 1020.9
20181218154006 44 185 3.0 5.0 0.00 0.00 0.00 92 1020.9
20181218153505 43 212 3.0 5.0 0.00 0.00 0.00 92 1020.9
20181218153020 43 217 0.0 5.0 0.00 0.00 0.00 92 1020.9
20181218152505 42 198 0.0 5.0 0.00 0.00 0.00 91 1020.9
20181218152021 41 192 0.0 5.0 0.00 0.00 0.00 91 1020.9
20181218151505 40 334 0.0 0.0 0.00 0.00 0.00 90 1020.9
20181218151006 39 334 0.0 0.0 0.00 0.00 0.00 90 1020.9
20181218150506 39 338 0.0 0.0 0.00 0.00 0.00 89 1020.9
20181218150006 38 337 0.0 0.0 0.00 0.00 0.00 89 1020.9
20181218145505 38 340 0.0 0.0 0.00 0.00 0.00 89 1019.9
20181218145005 37 340 0.0 0.0 0.00 0.00 0.00 89 1019.9
20181218144520 37 336 0.0 0.0 0.00 0.00 0.00 89 1019.9
20181218144005 37 339 0.0 0.0 0.00 0.00 0.00 88 1019.9
20181218143505 36 343 0.0 0.0 0.00 0.00 0.00 88 1019.9
20181218143005 36 339 0.0 0.0 0.00 0.00 0.00 88 1019.9
20181218142506 36 335 0.0 0.0 0.00 0.00 0.00 88 1019.9
20181218142005 36 336 0.0 0.0 0.00 0.00 0.00 88 1019.9
20181218141505 36 339 0.0 0.0 0.00 0.00 0.00 88 1019.9
20181218141005 35 334 0.0 0.0 0.00 0.00 0.00 88 1019.9
20181218140505 35 343 0.0 0.0 0.00 0.00 0.00 88 1019.9
20181218140005 35 338 0.0 0.0 0.00 0.00 0.00 88 1019.9
20181218135504 35 343 0.0 0.0 0.00 0.00 0.00 87 1019.9
20181218135020 35 336 0.0 0.0 0.00 0.00 0.00 88 1019.9
20181218134505 35 340 0.0 0.0 0.00 0.00 0.00 88 1019.9
20181218134005 35 340 0.0 0.0 0.00 0.00 0.00 87 1019.9
20181218133504 34 341 0.0 0.0 0.00 0.00 0.00 87 1019.9
20181218133004 34 338 0.0 0.0 0.00 0.00 0.00 87 1019.9
20181218132504 34 343 0.0 0.0 0.00 0.00 0.00 87 1019.9
20181218132020 34 341 0.0 0.0 0.00 0.00 0.00 87 1019.9
20181218131504 34 345 0.0 0.0 0.00 0.00 0.00 87 1019.9
20181218131004 34 339 0.0 0.0 0.00 0.00 0.00 87 1019.9
20181218130504 34 340 0.0 0.0 0.00 0.00 0.00 87 1019.9
20181218130004 34 342 0.0 0.0 0.00 0.00 0.00 87 1019.9
20181218125505 34 340 0.0 0.0 0.00 0.00 0.00 87 1019.9
20181218125004 34 342 0.0 0.0 0.00 0.00 0.00 87 1019.9
20181218124504 34 342 0.0 0.0 0.00 0.00 0.00 87 1019.9
20181218124004 34 338 0.0 0.0 0.00 0.00 0.00 86 1019.9
20181218123504 34 338 0.0 0.0 0.00 0.00 0.00 86 1019.9
20181218123004 34 341 0.0 0.0 0.00 0.00 0.00 86 1019.9
20181218122503 34 339 0.0 0.0 0.00 0.00 0.00 86 1018.9
20181218122003 34 338 0.0 0.0 0.00 0.00 0.00 86 1018.9
20181218121503 35 341 0.0 0.0 0.00 0.00 0.00 86 1018.9
20181218121003 35 338 0.0 0.0 0.00 0.00 0.00 86 1018.9
20181218120503 35 339 0.0 0.0 0.00 0.00 0.00 86 1018.9
20181218120034 35 338 0.0 0.0 0.00 0.00 0.00 86 1018.9
20181218115503 35 341 0.0 0.0 0.00 0.00 0.00 86 1018.9
20181218115003 35 339 0.0 0.0 0.00 0.00 0.00 85 1018.9
20181218114503 35 341 0.0 0.0 0.00 0.00 0.00 85 1018.9
20181218114005 35 338 0.0 0.0 0.00 0.00 0.00 85 1018.9
20181218113503 35 342 0.0 0.0 0.00 0.00 0.00 85 1018.9
20181218113018 35 341 0.0 0.0 0.00 0.00 0.00 85 1018.9
20181218112503 35 340 0.0 0.0 0.00 0.00 0.00 85 1018.9
20181218112003 35 341 0.0 0.0 0.00 0.00 0.00 85 1018.9
20181218111503 35 339 0.0 0.0 0.00 0.00 0.00 85 1018.9
20181218111019 35 341 0.0 0.0 0.00 0.00 0.00 85 1018.9
20181218110502 35 339 0.0 0.0 0.00 0.00 0.00 85 1018.9
20181218110002 36 341 0.0 0.0 0.00 0.00 0.00 85 1018.9
20181218105502 36 340 0.0 0.0 0.00 0.00 0.00 85 1019.9
20181218105002 36 338 0.0 0.0 0.00 0.00 0.00 85 1019.9
20181218104502 36 341 0.0 0.0 0.00 0.00 0.00 85 1019.9
20181218104003 36 342 0.0 0.0 0.00 0.00 0.00 85 1018.9
20181218103502 36 339 0.0 0.0 0.00 0.00 0.00 85 1018.9
20181218103002 36 342 0.0 0.0 0.00 0.00 0.00 85 1018.9
20181218102502 36 341 0.0 0.0 0.00 0.00 0.00 85 1019.9
20181218102002 36 340 0.0 0.0 0.00 0.00 0.00 84 1019.9
20181218101532 36 338 0.0 0.0 0.00 0.00 0.00 84 1019.9
20181218101032 37 338 0.0 0.0 0.00 0.00 0.00 84 1019.9
20181218100532 37 340 0.0 0.0 0.00 0.00 0.00 84 1019.9
20181218100031 37 341 0.0 0.0 0.00 0.00 0.00 84 1019.9
20181218095531 37 337 0.0 0.0 0.00 0.00 0.00 84 1019.9
20181218095033 37 342 0.0 0.0 0.00 0.00 0.00 84 1019.9
20181218094547 37 342 0.0 0.0 0.00 0.00 0.00 84 1019.9
20181218094031 37 339 0.0 0.0 0.00 0.00 0.00 84 1019.9
20181218093532 37 339 0.0 0.0 0.00 0.00 0.00 83 1019.9
20181218093031 37 339 0.0 0.0 0.00 0.00 0.00 83 1019.9
20181218092532 37 338 0.0 0.0 0.00 0.00 0.00 83 1019.9
20181218092046 37 341 0.0 0.0 0.00 0.00 0.00 83 1019.9
20181218091531 37 338 0.0 0.0 0.00 0.00 0.00 83 1019.9
20181218091031 37 339 0.0 0.0 0.00 0.00 0.00 83 1019.9
20181218090531 37 340 0.0 0.0 0.00 0.00 0.00 83 1019.9
20181218090031 37 337 0.0 0.0 0.00 0.00 0.00 83 1019.9
20181218085546 37 338 0.0 0.0 0.00 0.00 0.00 83 1019.9
20181218085031 37 338 0.0 0.0 0.00 0.00 0.00 83 1019.9
20181218084530 37 342 0.0 0.0 0.00 0.00 0.00 82 1019.9
20181218084030 38 340 0.0 0.0 0.00 0.00 0.00 82 1019.9
20181218083530 38 338 0.0 0.0 0.00 0.00 0.00 82 1019.9
20181218083030 38 341 0.0 0.0 0.00 0.00 0.00 82 1019.9
20181218082600 38 338 0.0 0.0 0.00 0.00 0.00 82 1019.9
20181218082032 38 340 0.0 0.0 0.00 0.00 0.00 82 1019.9
20181218081531 38 338 0.0 0.0 0.00 0.00 0.00 82 1019.9
20181218081031 38 341 0.0 0.0 0.00 0.00 0.00 82 1019.9
20181218080530 38 338 0.0 0.0 0.00 0.00 0.00 82 1019.9
20181218080031 38 340 0.0 0.0 0.00 0.00 0.00 81 1019.9
20181218075545 38 341 0.0 0.0 0.00 0.00 0.00 81 1019.9
20181218075045 38 339 0.0 0.0 0.00 0.00 0.00 81 1019.9
20181218074530 38 341 0.0 0.0 0.00 0.00 0.00 81 1019.9
20181218074030 39 341 0.0 0.0 0.00 0.00 0.00 80 1020.9
20181218073530 39 339 0.0 0.0 0.00 0.00 0.00 80 1020.9
20181218073030 39 341 0.0 0.0 0.00 0.00 0.00 80 1020.9
20181218072530 39 341 0.0 0.0 0.00 0.00 0.00 80 1020.9
20181218072045 39 341 0.0 0.0 0.00 0.00 0.00 80 1020.9
20181218071529 39 342 0.0 0.0 0.00 0.00 0.00 80 1020.9
20181218071030 39 337 0.0 0.0 0.00 0.00 0.00 80 1019.9
20181218070529 39 338 0.0 0.0 0.00 0.00 0.00 80 1019.9
20181218070046 40 341 0.0 0.0 0.00 0.00 0.00 80 1019.9
20181218065530 40 338 0.0 0.0 0.00 0.00 0.00 80 1020.9
20181218065029 40 338 0.0 0.0 0.00 0.00 0.00 79 1020.9
20181218064530 40 338 0.0 0.0 0.00 0.00 0.00 79 1020.9
20181218064045 40 339 0.0 0.0 0.00 0.00 0.00 79 1020.9
20181218063529 40 341 0.0 0.0 0.00 0.00 0.00 79 1020.9
20181218063029 41 341 0.0 0.0 0.00 0.00 0.00 79 1020.9
20181218062529 41 339 0.0 0.0 0.00 0.00 0.00 78 1020.9
20181218062029 41 338 0.0 0.0 0.00 0.00 0.00 78 1020.9
20181218061529 41 342 0.0 0.0 0.00 0.00 0.00 78 1020.9
20181218061045 41 338 0.0 0.0 0.00 0.00 0.00 78 1020.9
20181218060529 41 341 0.0 0.0 0.00 0.00 0.00 78 1020.9
20181218060045 41 340 0.0 0.0 0.00 0.00 0.00 78 1020.9
20181218055529 41 339 0.0 0.0 0.00 0.00 0.00 78 1020.9
20181218055029 41 342 0.0 0.0 0.00 0.00 0.00 78 1020.9
20181218054529 42 340 0.0 0.0 0.00 0.00 0.00 78 1020.9
20181218054029 42 338 0.0 0.0 0.00 0.00 0.00 77 1020.9
20181218053528 42 338 0.0 0.0 0.00 0.00 0.00 77 1020.9
20181218053044 42 338 0.0 0.0 0.00 0.00 0.00 77 1020.9
20181218052529 42 342 0.0 0.0 0.00 0.00 0.00 77 1021.9
20181218052058 42 339 0.0 0.0 0.00 0.00 0.00 77 1021.9
20181218051528 42 338 0.0 0.0 0.00 0.00 0.00 77 1021.9
20181218051058 42 339 0.0 0.0 0.00 0.00 0.00 77 1021.9
20181218050528 43 341 0.0 0.0 0.00 0.00 0.00 76 1021.9
20181218050029 43 342 0.0 0.0 0.00 0.00 0.00 76 1021.9
20181218045528 43 338 0.0 0.0 0.00 0.00 0.00 77 1021.9
20181218045058 43 341 0.0 0.0 0.00 0.00 0.00 76 1021.9
20181218044528 44 341 0.0 0.0 0.00 0.00 0.00 76 1021.9
20181218044029 44 341 0.0 0.0 0.00 0.00 0.00 76 1021.9
20181218043528 44 338 0.0 0.0 0.00 0.00 0.00 76 1021.9
20181218043028 44 341 0.0 0.0 0.00 0.00 0.00 76 1021.9
20181218042529 45 338 0.0 0.0 0.00 0.00 0.00 76 1021.9
20181218042028 45 339 0.0 0.0 0.00 0.00 0.00 76 1021.9
20181218041528 45 338 0.0 0.0 0.00 0.00 0.00 76 1021.9
20181218041028 45 341 0.0 0.0 0.00 0.00 0.00 76 1021.9
20181218040527 45 338 0.0 0.0 0.00 0.00 0.00 75 1021.9
20181218040028 45 340 0.0 0.0 0.00 0.00 0.00 75 1021.9
20181218035543 45 339 0.0 0.0 0.00 0.00 0.00 75 1021.9
20181218035027 45 340 0.0 0.0 0.00 0.00 0.00 75 1021.9
20181218034527 45 341 0.0 0.0 0.00 0.00 0.00 75 1021.9
20181218034027 45 340 0.0 0.0 0.00 0.00 0.00 75 1020.9
20181218033528 45 338 0.0 0.0 0.00 0.00 0.00 75 1020.9
20181218033027 45 338 0.0 0.0 0.00 0.00 0.00 74 1020.9
20181218032527 45 337 0.0 0.0 0.00 0.00 0.00 74 1021.9
20181218032027 45 338 0.0 0.0 0.00 0.00 0.00 74 1021.9
20181218031527 45 339 0.0 0.0 0.00 0.00 0.00 74 1021.9
20181218031027 45 338 0.0 0.0 0.00 0.00 0.00 73 1021.9
20181218030527 45 339 0.0 0.0 0.00 0.00 0.00 73 1021.9
20181218030027 45 342 0.0 0.0 0.00 0.00 0.00 73 1021.9
20181218025527 45 338 0.0 0.0 0.00 0.00 0.00 73 1021.9
20181218025042 45 340 0.0 0.0 0.00 0.00 0.00 73 1021.9
20181218024526 45 340 0.0 0.0 0.00 0.00 0.00 72 1021.9
20181218024027 45 340 0.0 0.0 0.00 0.00 0.00 72 1021.9
20181218023527 45 339 0.0 0.0 0.00 0.00 0.00 71 1021.9
20181218023027 45 339 0.0 0.0 0.00 0.00 0.00 70 1021.9
20181218022527 45 342 0.0 0.0 0.00 0.00 0.00 70 1021.9
20181218022026 45 339 0.0 0.0 0.00 0.00 0.00 70 1021.9
20181218021527 45 338 0.0 0.0 0.00 0.00 0.00 69 1021.9
20181218021026 45 339 0.0 0.0 0.00 0.00 0.00 69 1022.9
20181218020526 45 337 0.0 0.0 0.00 0.00 0.00 68 1022.9
20181218020026 45 340 0.0 0.0 0.00 0.00 0.00 68 1022.9
20181218015526 46 338 0.0 0.0 0.00 0.00 0.00 67 1021.9
20181218015026 46 338 0.0 0.0 0.00 0.00 0.00 67 1021.9
20181218014526 46 338 0.0 0.0 0.00 0.00 0.00 67 1021.9
20181218014026 47 342 0.0 0.0 0.00 0.00 0.00 67 1022.9
20181218013526 47 338 0.0 0.0 0.00 0.00 0.00 67 1022.9
20181218013026 47 337 0.0 0.0 0.00 0.00 0.00 67 1022.9
20181218012526 47 338 0.0 0.0 0.00 0.00 0.00 67 1022.9
20181218012026 47 338 0.0 0.0 0.00 0.00 0.00 66 1022.9
20181218011526 48 341 0.0 0.0 0.00 0.00 0.00 66 1022.9
20181218011025 48 343 0.0 0.0 0.00 0.00 0.00 66 1022.9
20181218010525 48 340 0.0 0.0 0.00 0.00 0.00 66 1022.9
20181218010025 48 340 0.0 0.0 0.00 0.00 0.00 65 1022.9
20181218005526 48 341 0.0 0.0 0.00 0.00 0.00 65 1021.9
20181218005025 49 339 0.0 0.0 0.00 0.00 0.00 65 1021.9
20181218004525 49 337 0.0 0.0 0.00 0.00 0.00 65 1021.9
20181218004025 49 340 0.0 4.0 0.00 0.00 0.00 65 1021.9
20181218003525 49 342 0.0 4.0 0.00 0.00 0.00 65 1021.9
20181218003025 49 14 0.0 0.0 0.00 0.00 0.00 65 1021.9
20181218002525 49 8 0.0 0.0 0.00 0.00 0.00 65 1021.9
20181218002025 49 11 0.0 0.0 0.00 0.00 0.00 62 1021.9
20181218001525 50 13 0.0 0.0 0.00 0.00 0.00 62 1021.9
20181218001040 50 9 0.0 0.0 0.00 0.00 0.00 62 1021.9
20181218000541 50 7 0.0 0.0 0.00 0.00 0.00 58 1021.9
20181218000025 50 12 0.0 0.0 0.00 0.00 0.00 58 1021.9
20181217235525 51 12 0.0 0.0 0.00 0.00 0.00 57 1021.9
20181217235024 51 10 0.0 0.0 0.00 0.00 0.00 57 1021.9
20181217234554 52 6 0.0 0.0 0.00 0.00 0.00 57 1021.9
20181217234054 52 7 0.0 0.0 0.00 0.00 0.00 55 1021.9
20181217233524 52 8 0.0 0.0 0.00 0.00 0.00 55 1021.9
20181217233024 52 8 0.0 0.0 0.00 0.00 0.00 54 1021.9
20181217232524 52 9 0.0 0.0 0.00 0.00 0.00 54 1021.9